Date String (YYYY-MM-DD hh:mm:ss) UTC,Instrument flags,absolute air pressure of the measurement (hPa),sample flow rate (lpm),inlet stack bypass flow (lpm),air temperature of the measurement (°C),ambient temperature measured by the external sensor (°C),aerosol sample conditioner tube jacket temperature (°C),OPC LED temperature (°C),internal box temperature (°C),relative humidity of the measurement (%),span deviation,mass concentration of particles derived from Lorenz-Mie calculation of OPC scattering (μg/m³),mass concentration of particles derived from Lorenz-Mie calculation of OPC scattering (μg/m³),mass concentration of particles derived from Lorenz-Mie calculation of OPC scattering (μg/m³)
DateTimeUTC,F1_M11,P_M11,Q1_M11,Q2_M11,T1_M11,T2_M11,T3_M11,T4_M11,T5_M11,U1_M11,ZSPAN_M11,X2_M11,X0_M11,X1_M11
2023-12-23 08:00:00,SystemResetWarning,0823.8,5.01,000.00,024.1,023.1,000.0,032.4,025.5,12.4,0000.0,0004.46,0009.80,0004.07
2023-12-23 08:01:00,SystemResetWarning,0823.8,5.00,000.00,024.1,023.1,000.0,032.4,025.5,12.4,0000.0,0004.51,0009.65,0004.12
2023-12-23 08:02:00,SystemResetWarning,0823.8,5.00,000.00,024.1,023.1,000.0,032.4,025.5,12.4,0000.0,0004.57,0009.36,0004.16
2023-12-23 08:03:00,SystemResetWarning,0823.8,5.00,000.00,024.1,023.1,000.0,032.4,025.5,12.4,0000.0,0004.60,0008.36,0004.19
2023-12-23 08:04:00,SystemResetWarning,0823.7,5.00,000.00,024.1,023.2,000.0,032.4,025.5,12.4,0000.0,0004.62,0008.10,0004.21
2023-12-23 08:05:00,SystemResetWarning,0823.8,5.00,000.00,024.1,023.2,000.0,032.4,025.5,12.4,0000.0,0004.64,0008.17,0004.23
2023-12-23 08:06:00,SystemResetWarning,0823.7,5.00,000.00,024.1,023.2,000.0,032.4,025.5,12.4,0000.0,0004.66,0008.18,0004.24
2023-12-23 08:07:00,SystemResetWarning,0823.6,5.00,000.00,024.1,023.2,000.0,032.4,025.5,12.4,0000.0,0004.61,0008.09,0004.19
2023-12-23 08:08:00,SystemResetWarning,0823.7,5.00,000.00,024.1,023.2,000.0,032.4,025.5,12.4,0000.0,0004.63,0008.28,0004.17
2023-12-23 08:09:00,SystemResetWarning,0823.6,5.00,000.00,024.1,023.2,000.0,032.4,025.5,12.5,0000.0,0004.61,0008.13,0004.15
2023-12-23 08:10:00,SystemResetWarning,0823.7,5.01,000.00,024.1,023.2,000.0,032.4,025.5,12.5,0000.0,0004.62,0008.12,0004.12
2023-12-23 08:11:00,SystemResetWarning,0823.6,5.01,000.00,024.1,023.2,000.0,032.4,025.5,12.5,0000.0,0004.60,0008.11,0004.11
2023-12-23 08:12:00,SystemResetWarning,0823.6,5.00,000.00,024.1,023.2,000.0,032.4,025.5,12.5,0000.0,0004.64,0008.71,0004.10
2023-12-23 08:13:00,SystemResetWarning,0823.6,5.00,000.00,024.1,023.2,000.0,032.4,025.5,12.4,0000.0,0004.68,0009.17,0004.13
2023-12-23 08:14:00,SystemResetWarning,0823.6,5.01,000.00,024.1,023.2,000.0,032.4,025.5,12.4,0000.0,0004.71,0009.59,0004.14
2023-12-23 08:15:00,SystemResetWarning,0823.6,5.00,000.00,024.1,023.2,000.0,032.4,025.5,12.3,0000.0,0004.75,0009.97,0004.17
2023-12-23 08:16:00,SystemResetWarning,0823.7,5.00,000.00,024.1,023.2,000.0,032.4,025.5,12.2,0000.0,0004.78,0010.00,0004.20
2023-12-23 08:17:00,SystemResetWarning,0823.7,5.00,000.00,024.1,023.2,000.0,032.4,025.5,12.3,0000.0,0004.77,0010.01,0004.22
2023-12-23 08:18:00,SystemResetWarning,0823.7,4.99,000.00,024.2,022.9,000.0,032.4,025.7,12.3,0000.0,0004.81,0010.82,0004.24
2023-12-23 08:19:00,SystemResetWarning,0823.7,5.00,000.00,024.2,022.3,000.0,032.4,025.9,12.3,0000.0,0004.82,0011.08,0004.26
2023-12-23 08:20:00,SystemResetWarning,0823.6,5.01,000.00,024.1,022.1,000.0,032.4,025.4,12.3,0000.0,0004.86,0011.29,0004.28
2023-12-23 08:21:00,SystemResetWarning,0823.7,5.01,000.00,024.1,022.2,000.0,032.4,025.2,12.3,0000.0,0004.85,0011.52,0004.29
2023-12-23 08:22:00,SystemResetWarning,0823.6,5.00,000.00,024.0,022.4,000.0,032.4,025.2,12.4,0000.0,0004.81,0011.87,0004.27
2023-12-23 08:23:00,SystemResetWarning,0823.7,4.99,000.00,024.0,022.5,000.0,032.4,025.2,12.4,0000.0,0004.74,0011.18,0004.23
2023-12-23 08:24:00,SystemResetWarning,0823.6,4.99,000.00,024.0,022.6,000.0,032.4,025.2,12.5,0000.0,0004.71,0010.79,0004.21
2023-12-23 08:25:00,SystemResetWarning,0823.7,5.00,000.00,023.9,022.6,000.0,032.3,025.1,12.5,0000.0,0004.68,0010.41,0004.19
2023-12-23 08:26:00,SystemResetWarning,0823.6,5.00,000.00,023.9,022.6,000.0,032.3,025.2,12.4,0000.0,0004.65,0010.18,0004.16
2023-12-23 08:27:00,SystemResetWarning,0823.6,5.01,000.00,023.9,022.7,000.0,032.3,025.2,12.5,0000.0,0004.57,0010.44,0004.11
2023-12-23 08:28:00,SystemResetWarning,0823.6,5.01,000.00,023.9,022.7,000.0,032.3,025.2,12.6,0000.0,0004.54,0010.46,0004.07
2023-12-23 08:29:00,SystemResetWarning,0823.6,5.00,000.00,023.9,022.8,000.0,032.3,025.2,12.6,0000.0,0004.52,0009.73,0004.05
2023-12-23 08:30:00,SystemResetWarning,0823.6,5.00,000.00,023.9,022.8,000.0,032.3,025.2,12.6,0000.0,0004.49,0009.18,0004.04
2023-12-23 08:31:00,SystemResetWarning,0823.6,5.00,000.00,023.9,022.9,000.0,032.3,025.2,12.6,0000.0,0004.45,0009.06,0004.02
2023-12-23 08:32:00,SystemResetWarning,0823.6,5.00,000.00,023.9,022.9,000.0,032.3,025.2,12.5,0000.0,0004.47,0009.08,0004.04
2023-12-23 08:33:00,SystemResetWarning,0823.6,5.00,000.00,023.9,022.9,000.0,032.3,025.2,12.6,0000.0,0004.50,0008.77,0004.04
2023-12-23 08:34:00,SystemResetWarning,0823.6,5.00,000.00,023.9,022.9,000.0,032.3,025.1,12.6,0000.0,0004.57,0008.82,0004.11
2023-12-23 08:35:00,SystemResetWarning,0823.6,5.00,000.00,023.9,022.9,000.0,032.3,025.2,12.6,0000.0,0004.64,0009.09,0004.19
2023-12-23 08:36:00,SystemResetWarning,0823.5,5.00,000.00,023.9,022.9,000.0,032.2,025.2,12.5,0000.0,0004.74,0009.19,0004.28
2023-12-23 08:37:00,SystemResetWarning,0823.6,4.99,000.00,023.9,022.9,000.0,032.2,025.2,12.5,0000.0,0004.86,0009.26,0004.35
2023-12-23 08:38:00,SystemResetWarning,0823.5,5.00,000.00,023.9,022.9,000.0,032.2,025.2,12.5,0000.0,0004.99,0009.13,0004.41
2023-12-23 08:39:00,SystemResetWarning,0823.5,5.00,000.00,023.9,022.9,000.0,032.2,025.2,12.4,0000.0,0005.06,0009.21,0004.46
2023-12-23 08:40:00,SystemResetWarning,0823.5,5.00,000.00,023.9,022.9,000.0,032.2,025.2,12.4,0000.0,0005.10,0009.20,0004.51
2023-12-23 08:41:00,SystemResetWarning,0823.5,5.00,000.00,023.9,022.9,000.0,032.2,025.2,12.3,0000.0,0005.11,0009.21,0004.53
2023-12-23 08:42:00,SystemResetWarning,0823.5,5.00,000.00,023.9,022.9,000.0,032.2,025.3,12.3,0000.0,0005.17,0009.26,0004.56
2023-12-23 08:43:00,SystemResetWarning,0823.5,5.01,000.00,023.9,022.9,000.0,032.2,025.3,12.3,0000.0,0005.13,0009.05,0004.55
2023-12-23 08:44:00,SystemResetWarning,0823.5,5.00,000.00,023.9,022.9,000.0,032.2,025.3,12.2,0000.0,0005.08,0009.23,0004.53
2023-12-23 08:45:00,SystemResetWarning,0823.4,5.01,000.00,023.9,022.9,000.0,032.2,025.3,12.2,0000.0,0004.94,0009.08,0004.41
2023-12-23 08:46:00,SystemResetWarning,0823.4,5.00,000.00,023.9,022.9,000.0,032.2,025.3,12.2,0000.0,0004.73,0008.90,0004.23
2023-12-23 08:47:00,SystemResetWarning,0823.3,5.01,000.00,023.9,022.9,000.0,032.2,025.3,12.1,0000.0,0004.49,0008.77,0004.04
2023-12-23 08:48:00,SystemResetWarning,0823.4,4.99,000.00,023.9,022.9,000.0,032.2,025.3,12.1,0000.0,0004.22,0008.37,0003.82
2023-12-23 08:49:00,SystemResetWarning,0823.4,4.99,000.00,023.9,022.9,000.0,032.2,025.3,12.1,0000.0,0003.96,0007.91,0003.63
2023-12-23 08:50:00,SystemResetWarning,0823.4,4.99,000.00,023.9,022.9,000.0,032.2,025.3,12.1,0000.0,0003.72,0007.52,0003.43
2023-12-23 08:51:00,SystemResetWarning,0823.4,5.00,000.00,023.9,022.9,000.0,032.2,025.3,12.1,0000.0,0003.49,0007.04,0003.24
2023-12-23 08:52:00,SystemResetWarning,0823.4,5.00,000.00,023.9,022.9,000.0,032.2,025.3,12.1,0000.0,0003.28,0006.54,0002.99
2023-12-23 08:53:00,SystemResetWarning,0823.4,5.01,000.00,023.9,022.9,000.0,032.2,025.3,12.3,0000.0,0003.00,0005.94,0002.65
2023-12-23 08:54:00,SystemResetWarning,0823.4,5.00,000.00,023.9,022.9,000.0,032.2,025.3,12.2,0000.0,0002.69,0005.26,0002.36
2023-12-23 08:55:00,SystemResetWarning,0823.4,5.00,000.00,023.9,022.9,000.0,032.2,025.3,12.1,0000.0,0002.45,0004.36,0002.13
2023-12-23 08:56:00,SystemResetWarning,0823.4,5.00,000.00,023.9,022.9,000.0,032.2,025.3,12.2,0000.0,0002.34,0004.13,0002.05
2023-12-23 08:57:00,SystemResetWarning,0823.4,5.00,000.00,023.9,022.9,000.0,032.2,025.3,12.2,0000.0,0002.29,0003.68,0002.01
2023-12-23 08:58:00,SystemResetWarning,0823.5,5.00,000.00,023.9,022.9,000.0,032.2,025.3,12.2,0000.0,0002.27,0002.99,0001.98
2023-12-23 08:59:00,SystemResetWarning,0823.5,4.99,000.00,023.9,022.9,000.0,032.2,025.3,12.3,0000.0,0002.29,0003.03,0001.99
